Vertical_Velocity
2 2 -2 -2 1 -1 -1 -2 -2 -1 -0 -1 -1 -2 0 1 0 -1 -1 1 1 -2 -1 -0 1 -0 3 -1 -2 -11 -11 -10 -5 -7 -2 -1 -1 -1 -0 3 2 -0 1 0 -2 2 1 3 -10 -12 4 -7 2 -1
-2 0 -1 -3 -1 -0 -3 -1 -3 -0 -2 -2 -2 -1 -2 0 0 -0 0 1 0 -2 -3 1 0 5 -0 -3 1 2 -2 -0 0 -4 -3 -2 -2 -3 1 0 -2 -0 -1 0 3 0 3 2 2 6 3 4 -3 3
-0 0 1 -1 0 2 -3 -5 -3 -1 -1 1 -1 -0 3 -2 -1 -0 -1 -1 1 -1 -1 1 5 -1 -2 2 3 0 1 1 -1 0 0 -1 -1 -0 -1 -1 -0 1 0 1 -1 4 -2 3 9 6 4 -0 -4 7
-3 -5 -0 0 -3 1 -2 -2 -4 -2 -1 -2 -1 -3 1 -1 -1 2 1 -1 -2 -1 -2 -0 3 1 1 -1 1 -1 0 0 1 1 0 -0 -1 0 -1 -1 -2 1 -1 1 -4 -2 -12 1 3 3 -7 0 -5 0
0 -3 -1 0 1 1 -1 -2 -1 -5 -0 -2 -2 -1 -1 3 -1 1 -1 -1 -2 -3 -2 -1 2 2 0 -2 -2 0 -1 -0 1 1 -0 -1 0 -3 0 -4 -1 -1 -1 1 -3 2 4 -10 -10 0 0 -2 0 -3
3 -5 -2 2 -1 1 1 0 -2 -2 -0 -4 -3 -2 -1 3 1 1 0 0 0 -0 -1 -3 0 1 3 1 4 2 -0 1 2 0 1 1 0 1 -2 -1 -3 0 -0 1 -8 1 4 -7 -3 -2 0 -0 -0 0
5 4 -1 -8 8 -4 -3 -0 0 -2 -2 -1 -2 -0 1 -1 0 -3 -1 0 -1 -0 0 -4 -2 1 -0 -2 -0 1 0 -0 0 0 -2 -1 -1 -3 -1 -1 -2 -1 -0 -1 1 -1 -6 -3 -9 -2 3 -7 -2 -0
-1 1 1 -5 4 2 -2 -3 1 3 0 -1 -0 0 2 -1 -2 2 -1 0 -0 -0 0 -3 -6 -1 -2 -2 -2 -2 -2 -1 0 0 1 -1 1 -1 -2 -4 -3 -0 -1 -1 2 6 1 -1 5 -2 3 3 -4 -3
-3 2 -2 -1 -1 -2 -5 -2 -3 -1 -0 -2 -2 -2 1 3 2 2 2 3 2 2 0 -1 -2 -4 -0 -0 -1 -0 -0 -3 3 -2 -0 -1 -1 -3 -6 -3 -3 -1 -2 -3 -2 1 2 1 -3 1 2 -1 2 -3
-3 -0 0 -2 2 -4 -2 -2 -4 -2 1 -3 -6 -1 1 -1 2 2 2 1 1 -1 -0 -2 -0 -3 -1 -1 -1 -2 -0 0 -1 1 1 -2 -3 -1 -3 -3 -3 -3 -3 -1 -3 -10 -6 -6 -4 -3 -1 -0 2 1
1 2 5 -6 1 1 -1 -3 -3 -4 1 -1 -3 -0 2 2 -1 1 -1 -1 -1 -2 0 -0 -0 -1 -0 -2 -1 1 -2 -1 -2 -4 -3 -1 -3 -4 -3 -3 -1 -0 -2 -1 -2 1 3 3 -0 -3 -5 -1 -0 0
-1 -1 2 -2 2 -1 -2 4 -0 -5 -0 -4 -3 -0 1 0 0 -2 -1 -0 -0 -3 -0 -1 -0 -1 -1 -0 -1 0 -1 -4 -3 -0 -5 -1 -8 -2 -3 -1 1 -0 0 0 1 -1 1 1 -1 -1 0 -1 -2 -2
-3 -0 2 -7 3 -0 -3 5 -5 -1 8 5 -2 1 1 -1 -2 1 -1 0 -0 -1 -2 -2 -0 -1 -0 0 -0 -2 -2 -3 0 -2 -3 -6 -1 -1 -2 -2 -1 -3 -3 -1 0 2 3 2 2 -1 -2 0 -0 1
-3 7 4 -1 -2 1 -4 5 -0 2 15 0 -2 -3 -5 -0 -2 -4 -3 -2 1 -2 -2 -0 -1 -1 0 -2 0 -3 -5 -2 -2 -1 -7 -3 -8 -3 -4 -2 1 2 -2 -3 1 1 -1 -1 -1 -2 1 1 -0 1
-10 -5 8 -13 2 1 -2 4 11 12 4 -2 -0 -5 -1 -7 -1 0 -1 -0 0 3 -3 -3 -1 0 0 -2 -0 -3 -3 -2 -4 -7 -4 -4 -3 -2 -0 -2 -3 -2 2 2 -3 -3 -0 -1 -1 -1 -1 2 0 4
-4 3 -17 6 1 1 -5 45 3 22 2 2 3 1 0 -0 -1 -1 0 1 0 0 -2 -1 -1 -2 -2 -2 -1 -4 -2 -5 -7 -2 -3 -2 -3 -2 -2 -1 -1 -1 -1 -2 1 -1 -3 -0 -1 -0 -1 2 -0 2
10 -10 -2 -2 2 -3 20 20 26 -3 0 3 -5 -0 1 4 -1 0 1 -1 3 -2 -1 -1 2 -8 -0 -0 -0 -2 -6 -5 -3 -3 -1 0 -1 1 -3 -4 0 -2 -2 -0 -1 -1 -0 -0 -1 0 -0 -1 2 0
-7 -3 6 4 17 23 8 20 7 7 0 0 -1 -3 -1 5 2 1 1 1 -6 -1 -1 -4 -5 2 -2 -1 -2 -5 -4 -0 -0 -1 -2 -1 -2 -3 0 -4 -0 1 -0 0 -1 -1 -0 -1 1 -1 -0 -1 -0 2
10 12 12 3 33 25 3 4 6 -1 -5 -0 0 0 0 -1 -0 1 2 2 1 -1 -1 2 2 -1 -4 -3 -3 -1 -2 -3 -2 -1 -1 0 0 -1 -1 -2 -1 0 -0 -1 -0 -0 -1 -1 1 1 -1 1 -1 -1
-2 -7 1 10 14 16 4 3 1 3 -1 0 0 -0 1 1 1 1 2 3 3 -2 2 1 -5 -6 -5 -3 -0 1 -1 -1 -0 -1 -1 -1 0 -0 1 -3 -2 0 -0 -0 0 -0 -0 -0 -1 2 -0 0 1 0
-5 -6 -1 12 7 15 3 -0 0 0 1 0 1 0 0 0 0 1 1 3 4 -2 -1 -7 -3 2 2 -0 1 -2 -3 -2 -1 2 -1 -1 -0 1 0 -1 -1 1 -1 0 0 -0 2 1 0 -0 1 0 0 1
-2 1 2 -1 11 4 5 2 1 -0 -0 -1 -0 1 -0 -0 -0 -0 2 3 -2 -9 -1 2 1 3 1 0 -1 2 0 -1 -2 -2 -1 -2 -4 -2 -2 -1 -2 -1 -1 -0 0 0 0 -0 1 0 0 1 1 1
1 -1 7 5 3 4 2 1 2 2 2 1 3 1 0 0 1 2 -0 -2 -2 1 -1 0 2 4 1 1 0 2 3 1 -1 0 -1 -1 -1 -1 -1 -1 -1 -1 0 0 -1 -0 -0 -0 0 -0 0 0 1 2
-2 2 2 2 2 1 -0 -0 -1 -2 -1 0 0 -0 1 1 0 0 -1 -1 -0 -1 -1 1 1 1 1 1 1 2 1 -0 0 -0 0 0 -0 0 -0 -1 -1 -1 -0 -1 -0 0 0 0 0 0 0 1 0 -0
-3 -2 3 1 1 -3 -1 -1 -1 1 -0 0 1 1 1 -1 1 1 -2 -2 -1 0 -0 0 1 1 1 0 -0 1 2 1 1 1 0 0 -1 -1 -1 -2 -0 0 -1 -1 -0 0 -0 0 0 0 0 1 0 0
-1 1 0 -1 1 -4 -1 -0 -0 -2 -0 0 -1 0 0 0 2 -3 -1 0 -0 -0 -0 -0 1 2 1 0 0 -0 -0 -0 -0 0 -0 -0 -0 -1 -1 -0 -1 -0 -1 -0 1 0 -0 0 0 0 0 0 0 -1
-1 -2 1 2 -1 -1 -0 0 1 0 0 -0 -0 1 0 1 -2 -1 0 -0 0 -0 1 1 -0 1 3 2 0 -1 1 0 1 -0 -1 -1 -1 -1 -1 -2 -1 -1 0 1 1 0 0 0 0 0 0 0 -0 -0
2 -0 -1 -1 -0 0 0 0 0 0 0 1 -1 -1 -0 -1 1 0 1 0 -1 0 3 1 -1 -2 0 2 1 1 0 -1 -1 -1 -1 -1 -0 -0 -0 -0 -1 -0 1 1 0 -0 -0 -0 0 0 0 1 0 -0
-1 -1 0 -1 0 0 -0 1 1 1 1 2 2 -0 0 -0 -0 1 0 -1 -0 1 1 1 0 1 2 1 1 1 -0 0 -1 -1 -0 -0 -1 0 -0 -0 -0 1 1 -0 2 1 -1 1 0 -2 -1 -0 0 -0
-1 -0 1 -0 -1 1 0 -1 -1 -1 -0 0 0 0 0 -0 0 0 -0 1 2 2 2 1 1 1 1 2 1 -0 -0 -1 -1 -1 -1 -1 -0 0 -0 0 0 -0 -0 0 1 1 -0 0 2 -2 0 -0 -0 -1
-0 1 -1 -0 -0 -1 -2 -1 -1 -0 0 1 1 2 -0 0 0 0 1 1 1 2 2 2 1 1 1 1 -0 -0 -0 -1 -0 -0 0 1 1 -0 -0 -1 -1 -1 -0 -0 -1 -0 0 -0 1 -0 -1 -0 1 -1
-1 -1 1 -1 -1 -0 0 0 -0 0 -0 0 0 0 0 1 1 2 1 1 1 1 1 1 1 -0 0 1 1 1 -0 -1 -0 1 1 0 -1 -1 -0 0 -1 -0 -0 -0 -0 -1 -2 -1 -1 -1 -0 -0 -0 -1
-1 -0 0 0 -0 -1 -0 -1 0 -1 -0 -1 -1 -1 0 0 0 1 1 1 0 0 0 1 1 2 1 1 1 1 0 1 2 1 -0 -0 0 -1 -1 -2 -2 -2 -1 0 1 1 -0 -1 -2 -1 -1 -2 -1 -0
Height
1577 1575 1572 1569 1565 1561 1556 1551 1546 1541 1537 1531 1525 1520 1515 1512 1509 1507 1505 1502 1500 1497 1497 1498 1498 1497 1495 1495 1499 1489 1483 1480 1475 1480 1485 1485 1481 1467 1463 1477 1476 1479 1486 1472 1470 1436 1437 1467 1450 1457 1478 1470 1468 1463
1575 1573 1571 1568 1564 1561 1557 1552 1547 1542 1537 1532 1526 1520 1515 1512 1509 1507 1504 1501 1498 1496 1497 1497 1497 1496 1496 1495 1494 1492 1494 1490 1487 1489 1491 1489 1483 1482 1476 1471 1483 1482 1495 1491 1487 1472 1477 1476 1477 1477 1474 1470 1464 1460
1572 1570 1568 1566 1562 1559 1556 1553 1547 1542 1537 1532 1527 1521 1516 1512 1508 1506 1504 1502 1498 1496 1497 1497 1495 1495 1495 1494 1493 1495 1489 1489 1488 1489 1488 1486 1489 1485 1495 1495 1491 1494 1495 1491 1490 1480 1477 1471 1472 1472 1472 1467 1460 1457
1567 1566 1564 1563 1558 1556 1553 1550 1546 1541 1536 1531 1526 1521 1515 1511 1506 1504 1502 1501 1500 1496 1496 1496 1494 1493 1493 1492 1490 1488 1487 1487 1487 1486 1486 1487 1490 1489 1494 1494 1495 1500 1499 1498 1488 1479 1472 1469 1467 1469 1462 1459 1456 1449
1562 1562 1559 1558 1555 1553 1551 1547 1544 1540 1534 1530 1525 1520 1515 1511 1507 1503 1499 1499 1498 1501 1496 1494 1494 1492 1491 1491 1487 1485 1485 1485 1484 1484 1485 1490 1490 1492 1496 1499 1505 1499 1501 1499 1489 1487 1489 1477 1469 1466 1460 1454 1450 1444
1555 1556 1555 1553 1551 1548 1547 1544 1541 1537 1531 1527 1523 1517 1513 1510 1506 1503 1501 1499 1496 1495 1494 1495 1491 1489 1489 1488 1486 1484 1483 1483 1483 1483 1487 1489 1491 1493 1500 1507 1496 1495 1496 1495 1490 1485 1481 1473 1468 1464 1459 1450 1444 1440
1549 1550 1551 1549 1548 1544 1543 1540 1537 1533 1529 1524 1519 1513 1509 1508 1505 1504 1503 1500 1497 1495 1493 1492 1489 1488 1486 1484 1484 1482 1482 1483 1483 1484 1487 1488 1489 1491 1501 1503 1491 1491 1489 1487 1485 1483 1474 1470 1466 1461 1454 1447 1442 1435
1545 1544 1546 1544 1543 1541 1539 1537 1533 1529 1526 1520 1516 1510 1506 1503 1501 1499 1498 1497 1495 1494 1492 1494 1489 1487 1486 1484 1484 1483 1482 1482 1483 1485 1488 1488 1490 1491 1497 1486 1486 1485 1483 1480 1480 1479 1474 1467 1461 1455 1449 1444 1436 1429
1539 1538 1539 1538 1537 1537 1534 1531 1530 1525 1521 1516 1512 1506 1503 1500 1499 1499 1496 1494 1493 1496 1489 1490 1494 1494 1488 1487 1486 1486 1484 1485 1485 1486 1489 1490 1491 1490 1480 1480 1480 1480 1479 1475 1472 1470 1466 1461 1453 1447 1442 1436 1429 1424
1533 1533 1533 1533 1531 1530 1529 1526 1525 1521 1516 1512 1508 1504 1500 1499 1497 1497 1490 1490 1490 1491 1490 1489 1490 1491 1491 1488 1487 1488 1487 1488 1492 1489 1488 1491 1483 1476 1474 1475 1473 1472 1472 1471 1466 1460 1458 1455 1451 1444 1438 1434 1429 1424
1526 1526 1527 1528 1526 1525 1525 1523 1520 1516 1513 1510 1507 1504 1498 1495 1495 1493 1492 1490 1489 1490 1488 1489 1490 1490 1491 1492 1491 1491 1493 1491 1499 1489 1489 1490 1481 1470 1470 1471 1470 1468 1466 1466 1463 1461 1458 1454 1448 1442 1435 1430 1424 1419
1519 1519 1519 1520 1521 1520 1520 1517 1514 1512 1509 1508 1507 1500 1494 1492 1492 1493 1492 1493 1491 1488 1488 1489 1489 1490 1490 1491 1491 1491 1493 1493 1495 1489 1495 1487 1466 1463 1466 1467 1467 1466 1464 1462 1460 1457 1454 1451 1447 1441 1435 1428 1423 1417
1511 1511 1510 1512 1513 1511 1511 1511 1510 1506 1504 1502 1500 1495 1491 1491 1491 1489 1482 1484 1485 1480 1482 1485 1488 1489 1490 1492 1492 1492 1496 1493 1488 1497 1482 1468 1459 1460 1460 1461 1461 1461 1461 1459 1456 1454 1451 1447 1444 1440 1434 1429 1423 1419
1500 1501 1501 1502 1503 1503 1502 1503 1500 1499 1500 1499 1497 1494 1487 1486 1480 1469 1466 1464 1469 1471 1476 1480 1484 1488 1488 1490 1493 1494 1491 1491 1498 1498 1471 1456 1452 1456 1457 1457 1457 1455 1454 1456 1455 1451 1447 1444 1441 1439 1435 1430 1426 1422
1493 1494 1493 1493 1494 1494 1494 1493 1491 1491 1492 1492 1493 1489 1478 1464 1462 1461 1462 1463 1465 1469 1472 1478 1482 1486 1488 1491 1492 1492 1493 1489 1477 1461 1450 1444 1449 1452 1452 1451 1453 1454 1453 1450 1449 1450 1447 1443 1440 1438 1435 1432 1430 1427
1484 1482 1480 1483 1484 1485 1485 1483 1479 1480 1481 1481 1475 1469 1463 1463 1459 1459 1458 1459 1461 1466 1471 1475 1481 1486 1486 1487 1491 1482 1484 1466 1444 1441 1438 1439 1443 1445 1449 1449 1449 1449 1449 1449 1448 1446 1445 1443 1441 1438 1436 1434 1432 1431
1473 1468 1469 1472 1474 1475 1474 1471 1469 1468 1468 1463 1452 1447 1448 1444 1445 1445 1447 1451 1456 1462 1467 1472 1475 1466 1481 1486 1483 1465 1454 1436 1431 1432 1435 1438 1441 1441 1441 1445 1445 1445 1446 1445 1445 1444 1443 1442 1440 1439 1437 1436 1434 1433
1458 1459 1459 1460 1462 1459 1458 1458 1458 1455 1450 1446 1444 1438 1440 1442 1441 1442 1443 1445 1451 1455 1457 1461 1462 1468 1461 1456 1445 1429 1426 1427 1428 1429 1432 1434 1435 1437 1437 1439 1441 1441 1441 1442 1442 1442 1442 1441 1440 1439 1438 1437 1436 1435
1447 1447 1448 1449 1449 1447 1446 1446 1447 1442 1438 1437 1435 1434 1434 1436 1437 1439 1440 1442 1444 1447 1450 1453 1453 1449 1433 1421 1415 1417 1420 1422 1424 1425 1428 1430 1430 1431 1433 1436 1438 1439 1439 1440 1440 1440 1440 1439 1439 1438 1438 1437 1437 1436
1438 1438 1437 1438 1437 1437 1435 1434 1433 1429 1427 1426 1428 1428 1429 1428 1430 1434 1436 1438 1441 1445 1445 1440 1424 1411 1411 1410 1412 1414 1416 1419 1421 1422 1424 1425 1426 1428 1429 1431 1434 1435 1436 1437 1437 1438 1438 1438 1438 1437 1437 1437 1437 1437
1429 1428 1429 1430 1427 1428 1426 1424 1425 1426 1424 1423 1423 1424 1425 1425 1428 1430 1432 1435 1438 1431 1421 1408 1403 1405 1408 1409 1410 1411 1413 1415 1417 1419 1420 1421 1422 1424 1426 1428 1431 1432 1433 1434 1435 1436 1437 1437 1436 1436 1436 1436 1436 1436
1423 1423 1422 1421 1420 1420 1420 1420 1422 1422 1425 1423 1424 1423 1423 1424 1425 1427 1428 1431 1422 1407 1405 1401 1403 1404 1404 1405 1405 1406 1407 1410 1413 1415 1417 1418 1418 1421 1423 1426 1428 1429 1430 1431 1432 1434 1434 1435 1435 1435 1435 1435 1436 1436
1418 1418 1418 1415 1414 1415 1418 1419 1421 1421 1422 1421 1422 1421 1420 1421 1422 1424 1423 1415 1404 1399 1399 1399 1399 1399 1399 1400 1401 1402 1403 1406 1409 1412 1413 1415 1417 1419 1421 1423 1425 1427 1427 1428 1430 1431 1432 1433 1433 1433 1434 1434 1435 1436
1416 1417 1415 1410 1412 1416 1417 1418 1420 1423 1423 1422 1421 1417 1419 1421 1423 1423 1416 1403 1398 1396 1396 1395 1395 1395 1395 1396 1397 1398 1401 1404 1407 1409 1411 1413 1415 1417 1419 1421 1422 1424 1425 1426 1427 1428 1429 1430 1431 1432 1433 1433 1434 1435
1415 1418 1416 1412 1412 1416 1418 1421 1423 1423 1418 1417 1418 1415 1418 1420 1420 1416 1407 1400 1398 1396 1394 1393 1392 1393 1394 1394 1396 1399 1401 1404 1406 1408 1410 1411 1413 1415 1417 1418 1420 1421 1422 1423 1425 1426 1427 1428 1429 1430 1431 1431 1432 1433
1414 1413 1415 1410 1412 1414 1416 1421 1422 1419 1417 1417 1416 1417 1418 1418 1416 1404 1401 1400 1398 1396 1394 1392 1392 1393 1394 1394 1396 1398 1401 1404 1406 1407 1409 1410 1412 1414 1415 1417 1418 1419 1420 1421 1422 1423 1425 1426 1427 1428 1429 1430 1430 1431
1412 1413 1412 1410 1412 1414 1416 1416 1415 1415 1413 1412 1412 1415 1415 1412 1404 1402 1401 1399 1398 1396 1393 1392 1393 1394 1396 1397 1397 1399 1401 1403 1405 1407 1408 1410 1411 1412 1414 1415 1416 1417 1418 1419 1420 1421 1423 1424 1425 1426 1427 1428 1428 1429
1413 1413 1414 1414 1413 1413 1413 1413 1413 1412 1410 1411 1412 1413 1410 1406 1403 1403 1402 1400 1398 1396 1395 1395 1395 1396 1397 1398 1399 1400 1401 1403 1405 1406 1407 1409 1410 1411 1411 1412 1413 1415 1416 1417 1419 1420 1421 1422 1423 1424 1425 1426 1426 1427
1415 1415 1415 1414 1413 1413 1414 1415 1415 1415 1415 1413 1412 1408 1407 1406 1405 1403 1402 1401 1400 1399 1398 1398 1398 1399 1399 1400 1401 1402 1402 1404 1405 1406 1407 1407 1408 1409 1409 1409 1411 1412 1414 1416 1418 1419 1420 1421 1422 1422 1423 1424 1424 1424
1418 1417 1416 1415 1415 1415 1416 1415 1415 1414 1413 1413 1412 1410 1408 1406 1405 1403 1402 1401 1401 1400 1400 1400 1400 1401 1402 1402 1403 1403 1403 1403 1404 1405 1405 1406 1406 1406 1407 1408 1409 1410 1412 1413 1415 1417 1418 1418 1419 1420 1421 1421 1421 1421
1419 1418 1417 1417 1417 1417 1416 1415 1414 1413 1412 1411 1410 1410 1408 1407 1405 1404 1403 1402 1402 1401 1401 1401 1402 1402 1403 1403 1403 1402 1403 1403 1403 1404 1404 1405 1405 1405 1406 1407 1408 1409 1410 1411 1413 1414 1415 1416 1417 1417 1418 1418 1418 1417
1420 1420 1420 1419 1418 1417 1415 1414 1413 1412 1412 1411 1410 1409 1408 1407 1407 1406 1405 1404 1403 1403 1402 1402 1402 1402 1402 1402 1402 1402 1402 1403 1403 1403 1403 1404 1404 1405 1406 1407 1408 1409 1409 1410 1411 1412 1413 1413 1413 1414 1414 1414 1414 1413
1422 1421 1421 1420 1418 1417 1416 1416 1414 1413 1412 1411 1411 1410 1410 1409 1409 1409 1408 1406 1405 1403 1403 1402 1402 1402 1402 1401 1401 1401 1402 1402 1402 1402 1403 1403 1404 1405 1406 1407 1408 1408 1409 1409 1410 1410 1409 1409 1409 1409 1409 1408 1408 1408